Mobile Downtown, AL

4:15 PM CST on February 21, 2018 (GMT -0600)
Mobile Downtown

Weather History for KBFM - February, 2014

Change the Weather History Date:

Tuesday, February 4, 2014

  Actual Average Record
Temperature  
Mean Temperature 54 °F -  
Max Temperature 64 °F 58 °F 72 °F (1999)
Min Temperature 45 °F 41 °F 27 °F (2009)
Degree Days  
Heating Degree Days 12    
Growing Degree Days 4 (Base 50)    
Moisture  
Dew Point 53 °F    
Average Humidity 95    
Maximum Humidity 100    
Minimum Humidity 93    
Precipitation  
Precipitation 0.06 in - - ()
Sea Level Pressure  
Sea Level Pressure 30.01 in    
Wind  
Wind Speed 8 mph (East)    
Max Wind Speed 16 mph    
Max Gust Speed 22 mph    
Visibility 2 miles    
Events Fog , Rain    
Averages and records for this station are not official NWS values.
T = Trace of Precipitation, MM = Missing Value Source: NWS Daily Summary

Daily Weather History Graph

Daily Weather History Graph

Search for Another Location

Airport or City:

Trip Planner

Search our weather history database for the weather conditions in past years. The results will help you decide how hot, cold, wet, or windy it might be!

Date:

Astronomy

Feb. 04, 2014 Rise Set
Actual Time 6:41 AM CST 5:31 PM CST
Civil Twilight 6:16 AM CST 5:56 PM CST
Nautical Twilight 5:47 AM CST 6:24 PM CST
Astronomical Twilight 5:19 AM CST 6:53 PM CST
Moon 9:44 AM CST (2/4) 10:57 PM CST (2/4)
Length of Visible Light 11h 39m
Length of Day
10h 49m
Waxing Crescent, 29% of the Moon is Illuminated
Feb 4
Waxing Crescent
Feb 6
First Quarter
Feb 14
Full
Feb 22
Last Quarter
Mar 1
New

Hourly Weather History & Observations

Time (CST) Temp. Windchill Dew Point Humidity Pressure Visibility Wind Dir Wind Speed Gust Speed Precip Events Conditions
12:53 AM 45.0 °F 40.1 °F 43.0 °F 93% 30.11 in 3.0 mi North 9.2 mph - N/A   Overcast
1:53 AM 45.0 °F 40.1 °F 43.0 °F 93% 30.11 in 3.0 mi North 9.2 mph - N/A   Overcast
2:22 AM 45.0 °F 40.6 °F 43.0 °F 93% 30.10 in 2.5 mi North 8.1 mph - N/A   Overcast
2:41 AM 45.0 °F 41.2 °F 43.0 °F 93% 30.10 in 3.0 mi North 6.9 mph - N/A   Overcast
2:53 AM 45.0 °F 40.1 °F 43.0 °F 93% 30.10 in 3.0 mi North 9.2 mph - N/A   Overcast
3:24 AM 45.0 °F 40.6 °F 43.0 °F 93% 30.10 in 3.0 mi North 8.1 mph - N/A   Overcast
3:53 AM 45.0 °F 40.6 °F 43.0 °F 93% 30.09 in 3.0 mi NNE 8.1 mph - N/A   Overcast
4:53 AM 45.0 °F 40.6 °F 44.1 °F 97% 30.07 in 5.0 mi NNE 8.1 mph - N/A   Overcast
5:26 AM 46.0 °F 43.1 °F 44.1 °F 93% 30.08 in 2.0 mi NNE 5.8 mph - N/A   Overcast
5:34 AM 46.0 °F 42.5 °F 44.1 °F 93% 30.08 in 1.5 mi North 6.9 mph - N/A   Overcast
5:53 AM 46.0 °F 43.1 °F 44.1 °F 93% 30.07 in 0.8 mi North 5.8 mph - N/A   Mist
6:53 AM 46.0 °F 43.1 °F 45.0 °F 96% 30.08 in 0.8 mi NNE 5.8 mph - N/A   Mist
7:53 AM 46.9 °F - 46.0 °F 97% 30.09 in 0.5 mi NNE 5.8 mph - N/A Fog Fog
8:53 AM 48.9 °F - 48.0 °F 97% 30.08 in 0.5 mi NE 4.6 mph - N/A Fog Fog
9:53 AM 50.0 °F - 50.0 °F 100% 30.08 in 0.5 mi Calm Calm - N/A Fog Fog
10:53 AM 54.0 °F - 53.1 °F 97% 30.06 in 0.8 mi Calm Calm - N/A   Overcast
11:53 AM 57.0 °F - 55.0 °F 93% 30.02 in 1.0 mi Calm Calm - N/A   Overcast
12:32 PM 59.0 °F - 57.0 °F 93% 30.00 in 2.0 mi Calm Calm - N/A   Overcast
12:53 PM 59.0 °F - 57.0 °F 93% 29.99 in 2.0 mi Calm Calm - N/A   Overcast
1:53 PM 59.0 °F - 57.9 °F 96% 29.96 in 0.5 mi SE 3.5 mph - N/A Fog Fog
2:53 PM 61.0 °F - 60.1 °F 97% 29.95 in 0.2 mi SSE 10.4 mph - 0.00 in Fog Fog
3:50 PM 62.6 °F - 60.8 °F 94% 29.94 in 1.0 mi SSE 9.2 mph - N/A   Mist
3:53 PM 62.1 °F - 61.0 °F 96% 29.94 in 0.5 mi SSE 10.4 mph - N/A Fog Fog
4:53 PM 62.1 °F - 61.0 °F 96% 29.94 in 1.0 mi SSE 9.2 mph - N/A   Overcast
5:53 PM 61.0 °F - 60.1 °F 97% 29.94 in 5.0 mi SSE 11.5 mph - N/A   Overcast
6:53 PM 62.1 °F - 60.1 °F 93% 29.94 in 8.0 mi SSE 13.8 mph - N/A   Overcast
7:46 PM 61.0 °F - 60.1 °F 97% 29.92 in 2.5 mi SSE 12.7 mph - N/A   Overcast
7:53 PM 61.0 °F - 60.1 °F 97% 29.92 in 1.0 mi South 10.4 mph - N/A   Mist
8:05 PM 60.1 °F - 60.1 °F 100% 29.92 in 0.5 mi SSE 9.2 mph - N/A Fog Fog
8:53 PM 60.1 °F - 60.1 °F 100% 29.94 in 0.5 mi South 8.1 mph - N/A Fog Fog
9:53 PM 60.1 °F - 59.0 °F 96% 29.93 in 0.8 mi SSE 10.4 mph - N/A   Mist
10:53 PM 62.1 °F - 61.0 °F 96% 29.91 in 0.5 mi South 16.1 mph 21.9 mph N/A Fog Fog
11:45 PM 62.1 °F - 61.0 °F 96% 29.92 in 2.0 mi SSE 9.2 mph 17.3 mph 0.06 in Rain Light Rain
11:53 PM 64.0 °F - 63.0 °F 96% 29.92 in 5.0 mi South 8.1 mph - 0.06 in   Overcast